Regional Weather Roundup
Issued by NWS Jackson, KY

Home | Current Version | Previous Version | Graphics & Text | Print | Product List | Glossary On
Versions: 1 2 3 4 5 6 7 8 9 10 11 12 13 14 15 16 17 18 19 20 21 22 23 24 25 26 27 28 29 30 31 32 33 34 35 36 37 38 39 40 41 42 43 44 45 46 47 48 49 50
000
ASUS43 KJKL 302110
RWRJKL

EAST KENTUCKY HOURLY WEATHER ROUNDUP
NATIONAL WEATHER SERVICE JACKSON KY
500 PM EDT THU MAR 30 2017

NOTE: "FAIR" INDICATES FEW OR NO CLOUDS BELOW 12,000 FEET WITH
NO SIGNIFICANT WEATHER AND/OR OBSTRUCTIONS TO VISIBILITY.

* THESE REPORTS ARE NOT UNDER NWS QUALITY CONTROL AND MAY NOT
  REPORT WEATHER SUCH AS PRECIPITATION AND FOG.

KYZ079-080-083-085-087-088-110-112-115-119-120-302200
...EASTERN KENTUCKY...

CITY           SKY/WX    TMP DP  RH WIND       PRES   REMARKS
JACKSON        CLOUDY    78  49  35 S10G24    29.70F
LONDON         CLOUDY    78  46  32 S18G28    29.68F
SOMERSET*      CLOUDY    79  41  25 SW15G28   29.68S
MONTICELLO*    MOSUNNY   78  49  35 S13G21    29.68
WILLIAMSBURG*  CLOUDY    79  48  34 S14G21    29.69F
MIDDLESBORO*   CLOUDY    79  50  36 S10G21    29.72F
HARLAN APT*    CLOUDY    77  50  38 S6        29.75F
PIKE CO APT*   CLOUDY    75  54  48 S12G17    29.74F
BIG SANDY APT* CLOUDY    78  53  41 S17G23    29.72S
MOREHEAD APT*  PTCLDY    81  46  30 S21G29    29.67F
ASHLAND*       PTSUNNY   72  54  53 S17G25    29.64F
$$

KYZ035-036-041-042-044-050-067-078-099-302200
...CENTRAL KENTUCKY...

CITY           SKY/WX    TMP DP  RH WIND       PRES   REMARKS
MT STERLING*   CLOUDY    79  50  36 SW14G23   29.66F
FLEMING/MASON* MOSUNNY   78  54  42 S13G21    29.66F
DANVILLE*      CLOUDY    77  48  36 SW9       29.65F
LEXINGTON      CLOUDY    78  47  33 SW15      29.63F
FRANKFORT      CLOUDY    78  47  33 S18G26    29.61F
LOUISVILLE     LGT RAIN  79  50  36 S24G38    29.59F
LEBANON*       MOCLDY    75  55  50 SW10G17   29.64F
GLASGOW*       CLOUDY    76  53  44 SW17G30   29.63F
BOWLING GREEN  CLOUDY    77  56  48 S15G28    29.63F
$$

KYZ091>093-OHZ055-061-077-WVZ005-015-034-035-042-302200
...SOUTHERN OHIO/WEST VIRGINIA...

CITY           SKY/WX    TMP DP  RH WIND       PRES   REMARKS
COVINGTON      CLOUDY    76  50  40 S14G26    29.61F
COLUMBUS       CLOUDY    76  55  48 S13       29.65F
DAYTON         CLOUDY    75  49  39 S16G24    29.61F
WILMINGTON     CLOUDY    74  54  49 S14       29.63F
HUNTINGTON     CLOUDY    81  52  36 S12G25    29.67F
CHARLESTON     CLOUDY    71  51  49 SE14G24   29.73F
PINEVILLE*     PTSUNNY   68  49  51 MISG      29.87S
BECKLEY        CLOUDY    54  47  77 SE14G24   29.87F
BLUEFIELD      CLOUDY    51  47  86 E7        29.91F
LOGAN CO APT*    N/A     73  54  49 VRB7G17   29.76F
$$

VAZ002-007-008-TNZ017-027-036-066-071-302200
...SOUTHWEST VIRGINIA/EAST TENNESSEE...

CITY           SKY/WX    TMP DP  RH WIND       PRES   REMARKS
WISE*          CLOUDY    68  50  52 S12G29    29.84F
JONESVILLE*      N/A     75  55  50 S9        29.79F
ABINGDON*      CLOUDY    70  53  55 S9G16     29.85F
BRISTOL        CLOUDY    71  54  54 SE15G21   29.81F
MORRISTOWN*    CLEAR     79  52  38 SW12G21   29.75F
SEVIERVILLE*   CLEAR     81  46  30 S13       29.72F
KNOXVILLE      CLOUDY    79  47  32 SW17G31   29.73F
LAFOLLETTE*    CLEAR     79  46  31 SW16G25   29.74F
OAK RIDGE      CLOUDY    82  42  24 S10G25    29.74F
CROSSVILLE     PTSUNNY   74  48  39 S9G29     29.76F
NASHVILLE      CLOUDY    78  55  44 SW15G28   29.65F
$$

...KEY TO REMARKS...
VSB - VISIBILITY IN MILES
WCI - WIND CHILL INDEX
HX  - HEAT INDEX

$$



USA.gov is the U.S. government's official web portal to all federal, state and local government web resources and services.